TimeEST,TemperatureF,Dew PointF,Humidity,Sea Level PressureIn,VisibilityMPH,Wind Direction,Wind SpeedMPH,Gust SpeedMPH,PrecipitationIn,Events,Conditions,WindDirDegrees,DateUTC
12:15 AM,21.0,17.8,87,30.01,1.5,North,5.8,-,N/A,Snow,Light Snow,350,2013-12-22 05:15:00
12:35 AM,20.8,17.6,87,30.00,1.5,North,8.1,-,N/A,Snow,Light Snow,350,2013-12-22 05:35:00
12:55 AM,20.8,17.6,87,29.99,1.8,North,5.8,-,N/A,Snow,Light Snow,350,2013-12-22 05:55:00
1:15 AM,20.8,17.6,87,29.98,2.5,North,5.8,-,N/A,Snow,Light Snow,350,2013-12-22 06:15:00
1:35 AM,20.8,17.6,87,29.97,2.0,North,5.8,-,N/A,Snow,Light Snow,350,2013-12-22 06:35:00
1:55 AM,20.8,17.6,87,29.95,2.0,North,5.8,-,N/A,Snow,Light Snow,360,2013-12-22 06:55:00
2:15 AM,21.2,18.1,88,29.96,1.8,NNW,3.5,-,N/A,Snow,Light Snow,340,2013-12-22 07:15:00
2:35 AM,21.7,18.7,88,29.95,2.5,North,6.9,-,N/A,Snow,Light Snow,350,2013-12-22 07:35:00
2:55 AM,22.1,19.2,89,29.94,-9999.0,North,4.6,-,N/A,,Overcast,360,2013-12-22 07:55:00
3:15 AM,22.1,19.2,89,29.92,1.2,North,4.6,-,N/A,Snow,Light Snow,350,2013-12-22 08:15:00
3:35 AM,22.3,19.4,89,29.91,1.2,North,4.6,-,N/A,Snow,Light Snow,350,2013-12-22 08:35:00
3:55 AM,23.4,20.3,88,29.92,1.0,Calm,Calm,-,N/A,Snow,Light Snow,0,2013-12-22 08:55:00
4:15 AM,23.4,20.3,88,29.82,1.2,NNE,9.2,-,N/A,Snow,Light Snow,30,2013-12-22 09:15:00
4:35 AM,24.8,21.9,89,29.82,2.5,North,10.4,-,N/A,Snow,Light Snow,10,2013-12-22 09:35:00
4:55 AM,25.3,22.5,89,29.83,4.0,North,6.9,17.3,N/A,Snow,Light Snow,350,2013-12-22 09:55:00
5:15 AM,24.6,21.6,88,29.84,1.5,North,11.5,17.3,N/A,Snow,Light Snow,350,2013-12-22 10:15:00
5:35 AM,24.6,21.7,89,29.80,1.0,North,10.4,-,N/A,Snow,Light Snow,360,2013-12-22 10:35:00
5:55 AM,28.4,25.7,90,29.79,1.2,North,9.2,18.4,N/A,Snow,Light Snow,10,2013-12-22 10:55:00
6:15 AM,30.9,28.2,90,29.76,1.0,NNE,6.9,-,N/A,Snow,Light Snow,30,2013-12-22 11:15:00
6:35 AM,30.9,28.2,90,29.78,1.0,North,3.5,-,N/A,Snow,Snow,10,2013-12-22 11:35:00
6:55 AM,31.1,28.8,91,29.78,1.8,North,6.9,-,N/A,Snow,Light Snow,360,2013-12-22 11:55:00
7:15 AM,32.0,29.5,90,29.78,3.0,North,6.9,-,N/A,Snow,Light Snow,350,2013-12-22 12:15:00
7:35 AM,30.9,28.4,90,29.78,2.5,North,5.8,-,N/A,Snow,Light Snow,360,2013-12-22 12:35:00
7:55 AM,30.9,28.4,90,29.78,1.2,North,4.6,-,N/A,Snow,Light Snow,350,2013-12-22 12:55:00
8:15 AM,30.9,28.4,90,29.79,1.2,NNW,3.5,-,N/A,Snow,Light Snow,330,2013-12-22 13:15:00
8:35 AM,30.9,28.4,90,29.81,1.2,NNW,4.6,-,N/A,Snow,Light Snow,340,2013-12-22 13:35:00
8:55 AM,29.7,27.3,91,29.82,1.8,NNW,6.9,-,N/A,Snow,Light Snow,330,2013-12-22 13:55:00
9:15 AM,28.4,26.1,91,29.81,2.0,NNW,9.2,-,N/A,Snow,Light Snow,340,2013-12-22 14:15:00
9:35 AM,28.0,25.5,90,29.85,2.0,NW,4.6,-,N/A,Snow,Light Snow,320,2013-12-22 14:35:00
9:55 AM,25.7,23.4,91,29.83,3.0,North,5.8,-,N/A,,Overcast,350,2013-12-22 14:55:00
10:15 AM,25.7,23.4,91,29.85,2.5,NNW,3.5,-,N/A,,Overcast,330,2013-12-22 15:15:00
10:35 AM,25.7,23.4,91,29.84,4.0,NNW,4.6,-,N/A,,Overcast,340,2013-12-22 15:35:00
10:55 AM,25.7,23.4,91,29.85,2.5,NNW,3.5,-,N/A,,Overcast,330,2013-12-22 15:55:00
11:15 AM,26.4,24.1,91,29.81,1.5,Calm,Calm,-,N/A,,Overcast,0,2013-12-22 16:15:00
11:35 AM,27.3,24.6,90,29.80,3.0,Calm,Calm,-,N/A,,Overcast,0,2013-12-22 16:35:00
11:55 AM,28.0,25.3,90,29.79,3.0,Calm,Calm,-,N/A,,Overcast,0,2013-12-22 16:55:00
12:15 PM,27.0,24.3,90,29.79,4.0,Calm,Calm,-,N/A,,Overcast,0,2013-12-22 17:15:00
12:35 PM,26.1,23.4,90,29.77,5.0,Calm,Calm,-,N/A,,Overcast,0,2013-12-22 17:35:00
12:55 PM,26.1,23.4,90,29.78,4.0,Calm,Calm,-,N/A,,Overcast,0,2013-12-22 17:55:00
1:15 PM,26.8,24.3,90,29.76,5.0,Calm,Calm,-,N/A,,Overcast,0,2013-12-22 18:15:00
1:35 PM,26.4,23.9,90,29.74,7.0,Calm,Calm,-,N/A,,Overcast,0,2013-12-22 18:35:00
1:55 PM,27.3,24.8,90,29.76,7.0,SSW,3.5,-,N/A,,Overcast,210,2013-12-22 18:55:00
2:15 PM,26.2,23.5,90,29.75,7.0,SSW,3.5,-,N/A,,Overcast,200,2013-12-22 19:15:00
2:35 PM,25.7,23.0,89,29.74,5.0,Calm,Calm,-,N/A,,Overcast,0,2013-12-22 19:35:00
2:55 PM,25.7,23.0,89,29.77,7.0,Calm,Calm,-,N/A,,Overcast,0,2013-12-22 19:55:00
3:15 PM,24.8,22.5,91,29.77,7.0,Calm,Calm,-,N/A,,Overcast,0,2013-12-22 20:15:00
3:35 PM,24.8,22.3,90,29.80,5.0,NW,3.5,-,N/A,,Overcast,310,2013-12-22 20:35:00
3:55 PM,24.6,22.1,90,29.79,7.0,Calm,Calm,-,N/A,,Overcast,0,2013-12-22 20:55:00
4:15 PM,24.4,22.1,91,29.84,5.0,NW,5.8,-,N/A,,Overcast,310,2013-12-22 21:15:00
4:35 PM,24.3,21.9,91,29.81,7.0,Calm,Calm,-,N/A,,Overcast,0,2013-12-22 21:35:00
4:55 PM,25.2,23.0,91,29.84,3.0,Calm,Calm,-,N/A,Snow,Light Snow,0,2013-12-22 21:55:00
5:15 PM,28.4,26.1,91,29.84,4.0,SSE,3.5,-,N/A,Snow,Light Snow,160,2013-12-22 22:15:00
5:35 PM,28.4,26.1,91,29.84,7.0,Calm,Calm,-,N/A,,Overcast,0,2013-12-22 22:35:00
5:55 PM,28.4,26.1,91,29.85,10.0,Calm,Calm,-,N/A,Snow,Light Snow,0,2013-12-22 22:55:00
6:15 PM,28.4,25.9,90,29.86,7.0,Calm,Calm,-,N/A,,Overcast,0,2013-12-22 23:15:00
6:35 PM,28.4,25.7,90,29.88,5.0,Calm,Calm,-,N/A,Snow,Light Snow,0,2013-12-22 23:35:00
6:55 PM,28.4,25.7,90,29.88,7.0,Calm,Calm,-,N/A,Snow,Light Snow,0,2013-12-22 23:55:00
7:15 PM,24.6,21.9,89,29.90,7.0,NNW,3.5,-,N/A,,Overcast,330,2013-12-23 00:15:00
7:35 PM,23.4,21.0,91,29.91,10.0,North,4.6,-,N/A,,Overcast,350,2013-12-23 00:35:00
7:55 PM,23.0,20.7,91,29.91,10.0,Calm,Calm,-,N/A,,Overcast,0,2013-12-23 00:55:00
8:15 PM,22.6,20.1,90,29.92,10.0,Calm,Calm,-,N/A,,Overcast,0,2013-12-23 01:15:00
8:35 PM,23.0,20.3,89,29.92,10.0,Calm,Calm,-,N/A,,Overcast,0,2013-12-23 01:35:00
8:55 PM,22.5,19.9,90,29.93,10.0,NNW,3.5,-,N/A,,Overcast,340,2013-12-23 01:55:00
9:15 PM,22.6,20.1,90,29.93,10.0,North,3.5,-,N/A,,Overcast,350,2013-12-23 02:15:00
9:35 PM,22.6,19.9,89,29.93,10.0,North,3.5,-,N/A,,Overcast,360,2013-12-23 02:35:00
9:55 PM,23.0,20.3,89,29.95,10.0,Calm,Calm,-,N/A,,Overcast,0,2013-12-23 02:55:00
10:15 PM,22.6,19.9,89,29.95,10.0,Calm,Calm,-,N/A,,Overcast,0,2013-12-23 03:15:00
10:35 PM,22.5,19.8,89,29.97,10.0,Calm,Calm,-,N/A,,Overcast,0,2013-12-23 03:35:00
10:55 PM,22.5,19.8,89,29.98,10.0,Calm,Calm,-,N/A,,Overcast,0,2013-12-23 03:55:00
11:15 PM,22.6,19.6,88,29.98,10.0,Calm,Calm,-,N/A,,Overcast,0,2013-12-23 04:15:00
11:35 PM,22.6,19.8,89,29.98,10.0,North,3.5,-,N/A,,Overcast,360,2013-12-23 04:35:00
11:55 PM,22.5,19.6,89,29.99,10.0,Calm,Calm,-,N/A,,Overcast,0,2013-12-23 04:55:00